TimeAKDT,TemperatureF,Dew PointF,Humidity,Sea Level PressureIn,VisibilityMPH,Wind Direction,Wind SpeedMPH,Gust SpeedMPH,PrecipitationIn,Events,Conditions,WindDirDegrees,DateUTC
12:54 AM,46.9,45.0,93,28.99,10.0,WNW,11.5,-,0.00,,Overcast,300,2013-09-29 08:54:00
1:54 AM,46.9,45.0,93,28.99,10.0,WNW,13.8,-,N/A,,Overcast,300,2013-09-29 09:54:00
2:07 AM,46.4,46.4,100,28.98,10.0,WNW,12.7,-,N/A,,Overcast,300,2013-09-29 10:07:00
2:54 AM,48.0,45.0,89,29.00,10.0,NW,11.5,-,N/A,,Overcast,310,2013-09-29 10:54:00
3:54 AM,46.9,45.0,93,28.99,10.0,WNW,12.7,-,N/A,,Mostly Cloudy,300,2013-09-29 11:54:00
4:54 AM,46.9,44.1,90,28.99,10.0,WNW,13.8,-,0.01,,Partly Cloudy,300,2013-09-29 12:54:00
5:54 AM,46.9,44.1,90,29.00,10.0,WNW,12.7,-,N/A,,Mostly Cloudy,300,2013-09-29 13:54:00
6:54 AM,46.0,44.1,93,29.00,10.0,WNW,16.1,-,N/A,,Scattered Clouds,290,2013-09-29 14:54:00
7:54 AM,46.0,44.1,93,29.01,10.0,WNW,13.8,-,N/A,,Overcast,300,2013-09-29 15:54:00
8:54 AM,46.0,44.1,93,29.02,10.0,WNW,12.7,-,0.00,Rain,Light Rain,300,2013-09-29 16:54:00
9:54 AM,46.0,44.1,93,29.03,10.0,WNW,13.8,-,0.00,,Overcast,300,2013-09-29 17:54:00
10:54 AM,48.0,44.1,86,29.04,10.0,WNW,10.4,-,N/A,,Overcast,300,2013-09-29 18:54:00
11:54 AM,51.1,42.1,71,29.05,10.0,NNW,8.1,17.3,0.00,Rain,Light Rain,330,2013-09-29 19:54:00
12:54 PM,51.1,42.1,71,29.06,10.0,NNW,8.1,-,0.00,Rain,Light Rain,330,2013-09-29 20:54:00
1:54 PM,52.0,43.0,71,29.07,10.0,NW,9.2,-,0.00,,Overcast,320,2013-09-29 21:54:00
2:54 PM,52.0,43.0,71,29.08,10.0,NW,11.5,-,N/A,,Overcast,320,2013-09-29 22:54:00
3:54 PM,52.0,42.1,69,29.10,10.0,NW,10.4,-,N/A,,Overcast,310,2013-09-29 23:54:00
4:54 PM,51.1,44.1,77,29.11,10.0,NW,8.1,-,N/A,,Mostly Cloudy,310,2013-09-30 00:54:00
5:54 PM,50.0,46.9,89,29.12,10.0,WNW,11.5,-,N/A,,Overcast,300,2013-09-30 01:54:00
6:54 PM,50.0,44.1,80,29.13,10.0,WNW,10.4,-,N/A,,Mostly Cloudy,300,2013-09-30 02:54:00
7:54 PM,51.1,43.0,74,29.14,10.0,NW,9.2,-,N/A,,Mostly Cloudy,310,2013-09-30 03:54:00
8:54 PM,48.9,45.0,86,29.15,10.0,NW,8.1,-,N/A,,Overcast,310,2013-09-30 04:54:00
9:54 PM,48.9,45.0,86,29.16,10.0,WNW,12.7,-,N/A,,Overcast,300,2013-09-30 05:54:00
10:54 PM,48.0,45.0,89,29.17,10.0,WNW,11.5,-,N/A,,Mostly Cloudy,300,2013-09-30 06:54:00
11:54 PM,48.0,45.0,89,29.19,10.0,WNW,13.8,-,N/A,,Overcast,290,2013-09-30 07:54:00